www.pogodaiklimat.ru

Погода и климат >> Архив погоды >> Аргентина >> Сан-Мигель-де-Тукуман


ПОГОДА в Сан-Мигель-де-Тукумане

  • Прогноз погоды в Сан-Мигель-де-Тукумане
  • Монитор погоды в Сан-Мигель-де-Тукумане

АРХИВ ПОГОДЫ в Сан-Мигель-де-Тукумане

Время (UTC), дата Ветер
(напр.,м/с)
 
Видим.   Явления Облачность Т
(С)
Тd
(С)
f
(%)
Тe
(С)
Тes
(С)
Комфортность P
(гПа)
Po
(гПа)
Тmin
(С)
Tmax
(С)
R
(мм)
R24
(мм)
S
(см)
03 14.09 СЗ 4 8000 м дым ясно +12.2 +7.9 75 +10 +10 1015.5 963.4
06 14.09 С 2 8000 м дым ясно +10.2 +6.9 80 +9 +9 1013.3 961.6
09 14.09 В 3 8000 м дым ясно +10.0 +6.3 78 +8 +8 1011.0 959.6
12 14.09 З 3 6000 м дым ясно +13.0 +7.9 71 +12 +15 1011.8 959.8 +8.5 +15.4
15 14.09 Ю 2 8000 м дым ясно +20.4 +8.1 45 +22 +39 комфорт 1010.4 958.9
18 14.09 З 2 6000 м дым ясно +25.8 +9.6 36 +26 +42 жарко 1006.4 955.4
21 14.09 З 4 6000 м дым ясно +26.7 +10.7 37 +28 +29 жарко 1005.1 954.2
00 15.09 С 2 6000 м дым ясно +20.4 +10.4 53 +23 +23 комфорт 1006.6 955.4 +13.0 +27.3
03 15.09 СЗ 3 6000 м дым ясно +15.2 +11.2 77 +14 +14 1005.4 954.4
06 15.09 СЗ 3 6000 м дым ясно +14.0 +10.3 78 +13 +13 1002.6 952.1
09 15.09 С 2 8000 м дым 8/0
[Cs]
+12.2 +9.3 82 +11 +11 1001.3 950.8
12 15.09 С 2 8000 м дым 9/0
[Ac As]
+17.2 +11.9 71 +18 +19 1002.9 952.2 +12.2 +20.4
15 15.09 З 2 8000 м дым 9/0
[Ac As]
+26.2 +12.5 43 +28 +33 жарко 1001.3 951.0
18 15.09 З 2 8000 м дым 9/0
[Ac As]
+29.4 +12.1 34 +30 +35 жарко 998.4 948.4
21 15.09 ЮЗ 3 7000 м дым 8/0
[Cs]
+31.0 +12.9 33 +32 +33 жарко 998.2 948.2
00 16.09 З 3 5000 м дым 3/0
[Cs]
+24.4 +13.7 51 +27 +27 жарко 1001.6 951.3 +17.2 +31.4
03 16.09 С 3 8000 м дым ясно +19.0 +13.6 71 +20 +20 1003.0 952.9
06 16.09 З 3 8000 м дым ясно +17.2 +12.5 74 +17 +17 1004.9 954.9
09 16.09 ЮЗ 2 8000 м дым 10/3 1200 м
[Sc Ac As]
+19.2 +14.5 74 +21 +21 комфорт 1008.6 958.6
12 16.09 ЮВ 4 7000 м слаб. дождь туман 9/4 750 м
[Sc As op]
+18.6 +15.3 81 +19 +20 1016.2 965.3 +17.2 +24.4 0.0
15 16.09 ЮВ 5 3000 м дождь 10/4 360 м
[Frnb As op]
+15.0 +12.9 87 +13 +14 1022.0 970.0
18 16.09 ЮЗ 5 6000 м слаб. морось {дождь} 10/8 180 м
[Frnb As op]
+11.9 +10.6 92 +9 +10 1023.5 971.0 0.5
21 16.09 З 4 7000 м дым {морось} 10/10 900 м
[Sc]
+12.0 +7.2 72 +10 +10 1023.5 971.2
00 17.09 З 2 7000 м дым {морось} 10/10 1050 м
[Sc]
+12.0 +8.1 77 +11 +11 1024.8 972.4 +11.6 +18.6 0.0
03 17.09 С 3 12 км 10/10 1050 м
[Sc]
+12.2 +8.9 80 +11 +11 1024.0 971.3
06 17.09 С 4 15 км 10/10 1200 м
[Sc]
+12.1 +7.5 73 +10 +10 1021.1 968.2
09 17.09 С 4 15 км 10/10 1350 м
[Sc]
+12.8 +6.8 67 +11 +11 1018.8 966.2
12 17.09 С 3 12 км 10/10 1350 м
[Sc]
+13.4 +7.5 67 +13 +13 1019.1 966.5 +11.5 +13.4 0.5
15 17.09 С 2 12 км 10/0
[Ac As]
+16.4 +6.1 50 +17 +21 1016.1 964.0
18 17.09 ЮЗ 5 12 км 10/0
[Ac As]
+18.6 +3.3 36 +18 +21 1011.3 959.6
21 17.09 ЮЗ 4 9000 м дым 10/5 1350 м
[Sc Ac As]
+15.4 +5.2 51 +15 +15 1011.7 959.8
00 18.09 С 4 8000 м дым 6/4 1350 м
[Sc Ac As]
+13.4 +7.9 69 +12 +12 1012.4 960.2 +13.4 +19.9
03 18.09 С 3 12 км ясно +12.2 +6.1 66 +11 +11 1012.7 960.6
06 18.09 С 3 12 км 8/0
[Cs]
+9.6 +7.2 85 +7 +7 1014.5 962.4
09 18.09 С 6 12 км ясно +9.2 +4.9 74 +6 +6 1013.8 961.4
12 18.09 С 6 12 км 8/0
[Ac As]
+12.6 +6.5 66 +10 +11 1014.9 962.6 +9.0 +13.4
15 18.09 ЮВ 3 9000 м дым ясно +24.6 +7.3 33 +25 +38 комфорт 1012.4 961.2
18 18.09 В 4 9000 м дым ясно +28.0 +7.2 27 +27 +37 жарко 1006.8 955.8
21 18.09 В 8 9000 м дым ясно +27.6 +4.0 22 +26 +27 жарко 1002.5 951.8
00 19.09 В 5 12 км ясно +20.9 +7.9 43 +22 +22 комфорт 1002.2 951.3 +12.6 +28.5
03 19.09 С 4 12 км ясно +16.4 +7.8 57 +16 +16 1001.0 950.6
06 19.09 С 4 10 км ясно +16.0 +6.3 53 +15 +15 998.3 948.4
09 19.09 С 2 10 км ясно +14.0 +6.8 62 +14 +14 997.8 947.7
12 19.09 С 2 10 км ясно +17.8 +9.3 57 +19 +22 1000.8 950.2 +10.4 +20.9
15 19.09 ЮЗ 3 8000 м дым 4/0
[Cs]
+26.0 +9.4 35 +26 +40 жарко 1001.0 950.8
18 19.09 Ю 9 8000 м дым 5/0
[Cs]
+29.8 +9.4 28 +29 +31 жарко 1003.0 953.0
21 19.09 ЮВ 8 4000 м пыльный позёмок 3/0
[Ac As]
+23.3 +2.0 25 +23 +23 комфорт 1008.3 957.3
00 20.09 В 5 5000 м пыль ясно +16.7 -0.2 32 +16 +16 1014.7 963.2 +16.7 +30.0
03 20.09 В 2 8000 м дым 3/0
[Ac trans]
+13.4 -1.8 35 +13 +13 1018.6 967.3
06 20.09 В 2 8000 м дым 5/0
[Ac trans]
+11.7 -4.1 33 +11 +11 1019.3 968.1
09 20.09 штиль 0 8000 м дым 9/0
[Ac As]
+11.4 -2.3 38 +11 +11 1020.6 968.8
12 20.09 штиль 0 7000 м дым 10/10 1200 м
[Sc]
+12.0 +2.2 51 +12 +12 1023.5 971.0 +10.6 +16.7
15 20.09 Ю 2 7000 м дым 10/10 1200 м
[Sc]
+14.8 -9.3 18 +15 +15 1023.9 971.3
18 20.09 В 2 7000 м дым 10/10 1350 м
[Sc]
+17.2 -6.3 19 +18 +18 1020.1 967.8
21 20.09 Ю 1 7000 м дым 9/0
[Cs]
+18.0 -2.2 25 +19 +21 1019.7 967.4
00 21.09 штиль 0 7000 м дым 9/0
[Cs]
+13.1 +0.4 42 +13 +13 1022.3 969.4 +12.0 +18.0

 

Местоположение метеостанции Сан-Мигель-де-Тукуман (Аргентина): широта -26.85 долгота -65.09 высота над уровнем моря 450 м.

В архиве по умолчанию представлена погода в Сан-Мигель-де-Тукумане за последнюю неделю. Архивные данные за месяц целиком и за предыдущие месяцы, начиная с января 2011 года, Вы можете получить, выбрав интересующий диапазон дат из раскрывающегося списка и нажав кнопку "Ввод!".


*Определитесь, кто Вы:
робот инопланетянин человек

Внимание! Время в таблицах - всемирное. Для получения местного времени необходимо прибавить поправку, которая равна -3 ч.

Смотрите также архив погоды в соседних городах и на ближайших метеорологических станциях:

Погода в Сантьяго-дель-Эстеро (Аргентина) (128 км)
Погода в Сан-Фернандо-дель-Валье-де-Катамарке (Аргентина) (206 км)
Погода в Сальте (Аргентина) (226 км)
Погода в Сан-Сальвадор-де-Жужуе (Аргентина) (275 км)
Погода в Ла-Риохе (Аргентина) (328 км)
Погода в Вилла де Мария дель Рио Секо (Аргентина) (366 км)
Погода в Чамикале (Аргентина) (407 км)
Погода в Сан-Рамон-де-ла-Нуэва-Оране (Аргентина) (419 км)
Погода в Сересе (Аргентина) (456 км)
Погода в Пресиденсиа-Роке-Саэнс-Пеньи (Аргентина) (458 км)

Пояснения к столбцам:

Ветер - указаны скорость ветра в м/с - средняя за 10 мин, порывы в срок и между сроками (в фигурных скобках) и направление, откуда дует ветер: С - северный, СВ - северо-восточный, В - восточный, ЮВ - юго-восточный, Ю - южный, ЮЗ - юго-западный, З - западный, СЗ - северо-западный.
Видимость - горизонтальная дальность видимости в метрах или километрах. При видимости от 1 до 10 км при отсутствии осадков обычно наблюдается дымка, при ухудшении видимости до 1 км и менее - туман. В сухую погоду видимость может ухудшаться дымом, пылью или мглою.
Явления - указаны атмосферные явления, наблюдавшиеся в срок или в последний час перед сроком; фигурными скобками обозначены явления, наблюдавшиеся между сроками (за 1-3 часа до срока); квадратными скобками обозначены град или гололедные отложения с указанием их диаметра в мм.
Облачность - указаны через наклонную черту общая и нижняя облачность в баллах и высота нижней границы облаков в метрах; квадратными скобками обозначены формы облаков: Ci - перистые, Cs - перисто-слоистые, Cc - перисто-кучевые, Ac - высококучевые, As - высокослоистые, Sc - слоисто-кучевые, Ns - слоисто-дождевые, Cu - кучевые, Cb - кучево-дождевые. Подробнее классификацию облаков см. в Атласе облаков (PDF).
T - Температура воздуха - температура, измеренная на высоте 2 м над землей.
Td - Температура точки росы - температура, при понижении до которой содержащийся в воздухе водяной пар достигнет насыщения.
f - Относительная влажность воздуха - влажноcть воздуха, измеренная на высоте 2 м над землей.
Te - Эффективная температура - температура, которую ощущает одетый по сезону человек в тени. Характеристика душности погоды. При расчете учитывается влияние влажности воздуха и скорости ветра на теплоощущения человека.
Tes - Эффективная температура на солнце - температура, которую ощущает человек, с поправкой на солнечный нагрев. Характеристика знойности погоды. Зависит от высоты солнца над горизонтом, облачности и скорости ветра. Ночью, в пасмурную погоду, а также при ветре 12 м/с и более поправка равна нулю.
P - Атмосферное давление - приведенное к уровню моря атмосферное давление.
Po - Атмосферное давление - измеренное на уровне метеостанции атмосферное давление.
Tmin - Минимальная температура - минимум температуры воздуха на высоте 2 м над землей.
Tmax - Максимальная температура - максимум температуры воздуха на высоте 2 м над землей.
R - Количество осадков - Количество выпавших осадков за период времени, мм. При наведении курсора мыши на число - период времени, за который выпало указанное количество осадков.
R24 - Количество осадков - Количество выпавших осадков за 24 часа, мм.
S - Снежный покров - Высота снежного покрова, см. При наведении курсора мыши на число - состояние снежного покрова и степень покрытия местности в баллах.